K3TXT-1 Weather Reports


Display with metric or nautical units.
time (UTC)temp
F
wind
direction
speed
MPH
gust
MPH
rain 1hr
in
rain 24hr
in
rain mn
in
humidity
%
barometer
mb
20260505011359 64 156 0.0 1.0 0.00 0.00 0.00 66
20260505011158 64 156 0.0 1.0 0.00 0.00 0.00 66
20260505011004 64 156 0.0 1.0 0.00 0.00 0.00 67
20260505010801 64 155 0.0 1.0 0.00 0.00 0.00 66
20260505010600 64 150 0.0 1.0 0.00 0.00 0.00 67
20260505010359 64 151 0.0 1.0 0.00 0.00 0.00 67
20260505010159 65 150 0.0 1.0 0.00 0.00 0.00 67
20260505010002 65 128 0.0 2.0 0.00 0.00 0.00 67
20260505005759 65 129 0.0 2.0 0.00 0.00 0.00 68
20260505005600 65 128 0.0 2.0 0.00 0.00 0.00 68
20260505005159 65 126 0.0 2.0 0.00 0.00 0.00 67
20260505005000 65 243 0.0 2.0 0.00 0.00 0.00 67
20260505004759 65 243 0.0 2.0 0.00 0.00 0.00 67
20260505004559 65 243 0.0 2.0 0.00 0.00 0.00 67
20260505004400 65 243 0.0 2.0 0.00 0.00 0.00 67
20260505004200 65 272 0.0 3.0 0.00 0.00 0.00 67
20260505003759 65 272 0.0 3.0 0.00 0.00 0.00 67
20260505003559 65 272 0.0 3.0 0.00 0.00 0.00 67
20260505003358 66 272 0.0 3.0 0.00 0.00 0.00 67
20260505003200 66 188 0.0 4.0 0.00 0.00 0.00 67
20260505003005 66 188 0.0 4.0 0.00 0.00 0.00 67
20260505002759 66 188 1.0 4.0 0.00 0.00 0.00 67
20260505002559 66 176 1.0 4.0 0.00 0.00 0.00 67
20260505002359 66 125 0.0 3.0 0.00 0.00 0.00 66
20260505002200 66 125 1.0 3.0 0.00 0.00 0.00 66
20260505002004 66 112 0.0 3.0 0.00 0.00 0.00 66
20260505001759 66 112 0.0 3.0 0.00 0.00 0.00 66
20260505001559 66 112 0.0 3.0 0.00 0.00 0.00 65
20260505001359 66 112 1.0 3.0 0.00 0.00 0.00 65
20260505001159 66 93 0.0 1.0 0.00 0.00 0.00 65
20260505001004 67 139 0.0 1.0 0.00 0.00 0.00 65
20260505000759 67 139 0.0 1.0 0.00 0.00 0.00 64
20260505000559 67 140 0.0 1.0 0.00 0.00 0.00 64
20260505000359 67 139 0.0 1.0 0.00 0.00 0.00 64
20260505000004 67 139 0.0 1.0 0.00 0.00 0.00 63
20260504235758 67 139 0.0 1.0 0.00 0.00 0.00 63
20260504235559 67 139 0.0 1.0 0.00 0.00 0.00 62
20260504235359 67 139 0.0 1.0 0.00 0.00 0.00 62
20260504235158 68 139 0.0 1.0 0.00 0.00 0.00 62
20260504234758 68 139 0.0 2.0 0.00 0.00 0.00 62
20260504234559 68 139 0.0 2.0 0.00 0.00 0.00 61
20260504234359 68 139 0.0 2.0 0.00 0.00 0.00 61
20260504234159 68 139 0.0 2.0 0.00 0.00 0.00 61
20260504234002 68 135 0.0 1.0 0.00 0.00 0.00 61
20260504233759 68 135 0.0 6.0 0.00 0.00 0.00 61
20260504233358 69 135 0.0 6.0 0.00 0.00 0.00 60
20260504233159 69 134 0.0 6.0 0.00 0.00 0.00 60
20260504233004 69 134 2.0 6.0 0.00 0.00 0.00 59
20260504232758 69 164 0.0 4.0 0.00 0.00 0.00 59
20260504232558 69 164 0.0 4.0 0.00 0.00 0.00 59
20260504232401 69 163 1.0 5.0 0.00 0.00 0.00 58
20260504232159 69 156 1.0 5.0 0.00 0.00 0.00 58
20260504232000 69 165 0.0 5.0 0.00 0.00 0.00 58
20260504231759 69 166 2.0 5.0 0.00 0.00 0.00 57
20260504231559 69 146 2.0 6.0 0.00 0.00 0.00 57
20260504231400 69 199 1.0 6.0 0.00 0.00 0.00 57
20260504231159 70 197 2.0 6.0 0.00 0.00 0.00 57
20260504231000 70 181 1.0 6.0 0.00 0.00 0.00 56
20260504230759 70 126 3.0 6.0 0.00 0.00 0.00 56
20260504230559 70 168 1.0 6.0 0.00 0.00 0.00 55
20260504230359 70 280 0.0 5.0 0.00 0.00 0.00 54
20260504230159 70 279 1.0 5.0 0.00 0.00 0.00 54
20260504225759 70 182 1.0 9.0 0.00 0.00 0.00 53
20260504225559 70 166 3.0 9.0 0.00 0.00 0.00 53
20260504225158 70 165 4.0 9.0 0.00 0.00 0.00 52
20260504225005 70 164 1.0 7.0 0.00 0.00 0.00 51
20260504224559 71 228 2.0 11.0 0.00 0.00 0.00 51
20260504224359 71 215 3.0 11.0 0.00 0.00 0.00 50
20260504224159 71 163 3.0 11.0 0.00 0.00 0.00 49
20260504224005 71 179 4.0 11.0 0.00 0.00 0.00 49
20260504223558 71 145 2.0 11.0 0.00 0.00 0.00 48
20260504223359 71 225 4.0 11.0 0.00 0.00 0.00 48
20260504223159 71 167 2.0 11.0 0.00 0.00 0.00 47
20260504223000 71 172 5.0 11.0 0.00 0.00 0.00 46
20260504222759 71 262 4.0 10.0 0.00 0.00 0.00 47
20260504222559 71 160 2.0 10.0 0.00 0.00 0.00 46
20260504222359 72 166 3.0 10.0 0.00 0.00 0.00 46
20260504222159 72 152 2.0 10.0 0.00 0.00 0.00 47
20260504222006 72 320 1.0 8.0 0.00 0.00 0.00 46
20260504221759 72 260 3.0 8.0 0.00 0.00 0.00 46
20260504221559 72 141 4.0 12.0 0.00 0.00 0.00 46
20260504221359 72 150 2.0 12.0 0.00 0.00 0.00 47
20260504221200 72 183 3.0 12.0 0.00 0.00 0.00 47
20260504220759 72 169 4.0 12.0 0.00 0.00 0.00 48
20260504220558 72 183 3.0 11.0 0.00 0.00 0.00 48
20260504220358 72 158 2.0 12.0 0.00 0.00 0.00 48
20260504220159 73 152 2.0 12.0 0.00 0.00 0.00 47
20260504220001 73 120 3.0 12.0 0.00 0.00 0.00 47
20260504215759 73 183 4.0 12.0 0.00 0.00 0.00 46
20260504215600 73 193 5.0 12.0 0.00 0.00 0.00 47
20260504215400 73 148 3.0 8.0 0.00 0.00 0.00 46
20260504215159 73 140 4.0 8.0 0.00 0.00 0.00 46
20260504215002 73 142 3.0 8.0 0.00 0.00 0.00 46
20260504214800 73 146 2.0 6.0 0.00 0.00 0.00 46
20260504214600 74 146 3.0 6.0 0.00 0.00 0.00 46
20260504214158 74 189 3.0 7.0 0.00 0.00 0.00 47
20260504214001 74 173 2.0 8.0 0.00 0.00 0.00 46
20260504213758 74 151 3.0 8.0 0.00 0.00 0.00 45
20260504213559 74 154 3.0 9.0 0.00 0.00 0.00 47
20260504213401 74 186 2.0 9.0 0.00 0.00 0.00 46
20260504213159 74 162 1.0 9.0 0.00 0.00 0.00 46
20260504213001 74 191 2.0 9.0 0.00 0.00 0.00 46
20260504212758 74 177 3.0 9.0 0.00 0.00 0.00 46
20260504212559 74 132 2.0 6.0 0.00 0.00 0.00 46
20260504212359 74 150 1.0 7.0 0.00 0.00 0.00 46
20260504212201 74 195 1.0 8.0 0.00 0.00 0.00 46
20260504211759 74 170 3.0 8.0 0.00 0.00 0.00 45
20260504211601 74 164 4.0 8.0 0.00 0.00 0.00 44
20260504211401 74 161 5.0 8.0 0.00 0.00 0.00 44
20260504211159 74 154 4.0 9.0 0.00 0.00 0.00 44
20260504211005 74 156 3.0 9.0 0.00 0.00 0.00 44
20260504210558 74 185 3.0 10.0 0.00 0.00 0.00 45
20260504210400 74 222 2.0 10.0 0.00 0.00 0.00 44
20260504210200 74 187 4.0 10.0 0.00 0.00 0.00 43
20260504210005 74 172 3.0 7.0 0.00 0.00 0.00 44
20260504205800 74 191 2.0 10.0 0.00 0.00 0.00 44
20260504205559 74 172 3.0 11.0 0.00 0.00 0.00 44
20260504205400 74 191 3.0 11.0 0.00 0.00 0.00 44
20260504205159 74 189 4.0 11.0 0.00 0.00 0.00 44
20260504205005 74 203 3.0 11.0 0.00 0.00 0.00 45
20260504204801 74 149 3.0 11.0 0.00 0.00 0.00 45
20260504204600 74 158 3.0 10.0 0.00 0.00 0.00 43
20260504204400 74 241 3.0 10.0 0.00 0.00 0.00 45
20260504204200 74 154 4.0 10.0 0.00 0.00 0.00 44
20260504203800 74 181 3.0 16.0 0.00 0.00 0.00 43
20260504203600 75 144 4.0 16.0 0.00 0.00 0.00 43
20260504203400 75 137 3.0 16.0 0.00 0.00 0.00 44
20260504203200 75 162 5.0 16.0 0.00 0.00 0.00 43
20260504203006 75 187 3.0 10.0 0.00 0.00 0.00 44
20260504202800 75 154 4.0 10.0 0.00 0.00 0.00 43
20260504202401 75 245 2.0 8.0 0.00 0.00 0.00 44
20260504202201 75 162 2.0 10.0 0.00 0.00 0.00 43
20260504202005 75 214 3.0 10.0 0.00 0.00 0.00 43
20260504201600 75 154 4.0 10.0 0.00 0.00 0.00 43
20260504201400 75 142 3.0 8.0 0.00 0.00 0.00 42
20260504201005 76 146 4.0 7.0 0.00 0.00 0.00 42
20260504200759 76 155 4.0 7.0 0.00 0.00 0.00 42
20260504200600 76 168 3.0 7.0 0.00 0.00 0.00 44
20260504200401 76 122 1.0 4.0 0.00 0.00 0.00 43
20260504200201 76 72 1.0 4.0 0.00 0.00 0.00 44
20260504200004 76 177 1.0 6.0 0.00 0.00 0.00 42
20260504195800 76 180 1.0 9.0 0.00 0.00 0.00 43
20260504195401 76 212 2.0 9.0 0.00 0.00 0.00 41
20260504195001 76 115 1.0 7.0 0.00 0.00 0.00 40
20260504194800 76 193 0.0 7.0 0.00 0.00 0.00 38
20260504194559 76 193 2.0 7.0 0.00 0.00 0.00 38
20260504194401 75 193 2.0 5.0 0.00 0.00 0.00 41
20260504194158 75 194 0.0 4.0 0.00 0.00 0.00 44
20260504194005 75 204 1.0 6.0 0.00 0.00 0.00 43
20260504193800 75 216 1.0 6.0 0.00 0.00 0.00 44
20260504193559 75 36 1.0 6.0 0.00 0.00 0.00 42
20260504193400 75 68 1.0 6.0 0.00 0.00 0.00 44
20260504193159 75 218 2.0 6.0 0.00 0.00 0.00 46
20260504193005 75 350 2.0 4.0 0.00 0.00 0.00 47
20260504192802 75 324 1.0 4.0 0.00 0.00 0.00 45
20260504192559 75 155 2.0 4.0 0.00 0.00 0.00 43
20260504192359 75 270 0.0 6.0 0.00 0.00 0.00 42
20260504191759 75 134 2.0 6.0 0.00 0.00 0.00 44
20260504191359 75 208 2.0 5.0 0.00 0.00 0.00 44
20260504191158 75 141 3.0 5.0 0.00 0.00 0.00 44
20260504191004 75 129 2.0 5.0 0.00 0.00 0.00 46
20260504190759 75 77 1.0 4.0 0.00 0.00 0.00 45
20260504190559 76 70 1.0 3.0 0.00 0.00 0.00 46
20260504190400 76 60 0.0 3.0 0.00 0.00 0.00 49
20260504190200 76 41 1.0 3.0 0.00 0.00 0.00 47
20260504185559 76 112 1.0 6.0 0.00 0.00 0.00 43
20260504185359 76 165 1.0 6.0 0.00 0.00 0.00 43
20260504185200 75 155 1.0 6.0 0.00 0.00 0.00 41
20260504185005 75 130 0.0 6.0 0.00 0.00 0.00 41
20260504184759 75 123 3.0 6.0 0.00 0.00 0.00 41
20260504184559 75 167 2.0 6.0 0.00 0.00 0.00 42
20260504184359 75 154 1.0 5.0 0.00 0.00 0.00 42
20260504184200 75 154 2.0 5.0 0.00 0.00 0.00 42
20260504184004 75 149 0.0 8.0 0.00 0.00 0.00 42
20260504183759 75 149 0.0 8.0 0.00 0.00 0.00 41
20260504183600 75 149 1.0 8.0 0.00 0.00 0.00 41
20260504183359 75 148 2.0 8.0 0.00 0.00 0.00 40
20260504183159 75 227 1.0 6.0 0.00 0.00 0.00 39
20260504182759 75 137 2.0 6.0 0.00 0.00 0.00 40
20260504182559 75 120 1.0 8.0 0.00 0.00 0.00 40
20260504182400 75 140 1.0 8.0 0.00 0.00 0.00 41
20260504182202 75 144 2.0 8.0 0.00 0.00 0.00 40
20260504182005 75 164 3.0 8.0 0.00 0.00 0.00 42
20260504181600 74 156 0.0 6.0 0.00 0.00 0.00 41
20260504181401 74 156 2.0 6.0 0.00 0.00 0.00 40
20260504181003 74 162 2.0 6.0 0.00 0.00 0.00 42
20260504180558 74 162 1.0 10.0 0.00 0.00 0.00 42
20260504180159 74 184 1.0 10.0 0.00 0.00 0.00 44
20260504180005 74 310 1.0 10.0 0.00 0.00 0.00 47
20260504175758 73 162 3.0 10.0 0.00 0.00 0.00 43
20260504175600 73 41 0.0 3.0 0.00 0.00 0.00 46
20260504175359 73 39 0.0 5.0 0.00 0.00 0.00 52
20260504175159 73 39 2.0 5.0 0.00 0.00 0.00 47
20260504174759 73 54 1.0 5.0 0.00 0.00 0.00 48
20260504174559 73 222 1.0 5.0 0.00 0.00 0.00 47
20260504174359 73 350 1.0 5.0 0.00 0.00 0.00 45
20260504174200 73 160 2.0 5.0 0.00 0.00 0.00 45
20260504174006 73 45 1.0 4.0 0.00 0.00 0.00 47
20260504173759 73 299 1.0 4.0 0.00 0.00 0.00 49
20260504173601 73 23 1.0 4.0 0.00 0.00 0.00 52
20260504173400 72 43 1.0 4.0 0.00 0.00 0.00 55
20260504173200 72 47 1.0 4.0 0.00 0.00 0.00 54
20260504172759 72 45 0.0 3.0 0.00 0.00 0.00 53
20260504172600 72 43 1.0 4.0 0.00 0.00 0.00 51
20260504172200 72 8 2.0 4.0 0.00 0.00 0.00 53
20260504172004 71 35 1.0 4.0 0.00 0.00 0.00 53
20260504171759 71 93 1.0 5.0 0.00 0.00 0.00 53
20260504171604 71 120 0.0 3.0 0.00 0.00 0.00 51
20260504171402 71 121 1.0 3.0 0.00 0.00 0.00 49
20260504171159 71 120 1.0 3.0 0.00 0.00 0.00 49
20260504170601 70 58 1.0 5.0 0.00 0.00 0.00 51
20260504170401 70 176 1.0 5.0 0.00 0.00 0.00 49
20260504170200 70 48 0.0 5.0 0.00 0.00 0.00 54
20260504160359 71 65 0.0 3.0 0.00 0.00 0.00 53
20260504160200 71 46 1.0 3.0 0.00 0.00 0.00 50
20260504150800 68 228 3.0 6.0 0.00 0.00 0.00 41
20260504150600 67 195 2.0 6.0 0.00 0.00 0.00 42
20260504150359 67 162 1.0 6.0 0.00 0.00 0.00 42
20260504150159 67 157 2.0 6.0 0.00 0.00 0.00 42
20260504141159 63 165 3.0 7.0 0.00 0.00 0.00 49
20260504140759 62 254 4.0 7.0 0.00 0.00 0.00 53
20260504140359 62 239 2.0 4.0 0.00 0.00 0.00 57
20260504140159 62 261 1.0 4.0 0.00 0.00 0.00 51
20260504130601 58 236 4.0 10.0 0.00 0.00 0.00 56
20260504130401 58 212 4.0 10.0 0.00 0.00 0.00 55
20260504130201 58 238 5.0 13.0 0.00 0.00 0.00 55
20260504120200 55 242 6.0 14.0 0.00 0.00 0.00 59
20260504110600 52 229 2.0 8.0 0.00 0.00 0.00 64
20260504110400 52 239 2.0 8.0 0.00 0.00 0.00 64
20260504110159 52 240 2.0 7.0 0.00 0.00 0.00 64
20260504100600 53 218 2.0 8.0 0.00 0.00 0.00 65
20260504100400 53 216 3.0 8.0 0.00 0.00 0.00 65
20260504082005 52 239 0.0 2.0 0.00 0.00 0.00 65
20260504081801 52 239 0.0 2.0 0.00 0.00 0.00 65
20260504081401 52 239 0.0 2.0 0.00 0.00 0.00 65
20260504081005 52 239 0.0 2.0 0.00 0.00 0.00 65
20260504080758 52 239 0.0 2.0 0.00 0.00 0.00 65
20260504080601 52 238 0.0 2.0 0.00 0.00 0.00 66
20260504080402 52 238 0.0 2.0 0.00 0.00 0.00 65
20260504070359 51 233 0.0 3.0 0.00 0.00 0.00 66
20260504070159 51 233 1.0 3.0 0.00 0.00 0.00 66
20260504050559 48 231 0.0 0.0 0.00 0.00 0.00 68
20260504050359 48 231 0.0 0.0 0.00 0.00 0.00 66
20260504050159 48 231 0.0 0.0 0.00 0.00 0.00 67
20260504050003 47 231 0.0 0.0 0.00 0.00 0.00 68
20260504045801 47 230 0.0 0.0 0.00 0.00 0.00 68
20260504045559 47 231 0.0 0.0 0.00 0.00 0.00 68
20260504045359 47 231 0.0 0.0 0.00 0.00 0.00 68
20260504045159 47 231 0.0 0.0 0.00 0.00 0.00 68
20260504045003 47 231 0.0 0.0 0.00 0.00 0.00 67
20260504044800 47 231 0.0 1.0 0.00 0.00 0.00 68
20260504044559 47 231 0.0 1.0 0.00 0.00 0.00 69
20260504044400 47 230 0.0 1.0 0.00 0.00 0.00 67
20260504044200 47 230 0.0 1.0 0.00 0.00 0.00 67
20260504043759 47 230 0.0 0.0 0.00 0.00 0.00 66
20260504043602 47 230 0.0 0.0 0.00 0.00 0.00 66
20260504043401 47 231 0.0 0.0 0.00 0.00 0.00 66
20260504043200 47 231 0.0 0.0 0.00 0.00 0.00 66
20260504043005 47 230 0.0 0.0 0.00 0.00 0.00 66
20260504042400 47 230 0.0 2.0 0.00 0.00 0.00 67
20260504042201 47 231 0.0 2.0 0.00 0.00 0.00 68
20260504042005 47 230 0.0 2.0 0.00 0.00 0.00 70
20260504041800 47 231 1.0 3.0 0.00 0.00 0.00 69
20260504041159 47 231 1.0 3.0 0.00 0.00 0.00 69
20260504040601 47 230 1.0 3.0 0.00 0.00 0.00 69
20260504040400 47 230 1.0 3.0 0.00 0.00 0.00 69
20260504040201 47 228 1.0 2.0 0.00 0.00 0.00 69
20260504040008 47 228 1.0 2.0 0.00 0.00 0.00 69
20260504035801 47 228 0.0 1.0 0.00 0.00 0.00 69
20260504035600 47 228 0.0 1.0 0.00 0.00 0.00 69
20260504035359 47 228 0.0 1.0 0.00 0.00 0.00 70
20260504035200 47 228 0.0 1.0 0.00 0.00 0.00 70
20260504035004 47 228 0.0 0.0 0.00 0.00 0.00 70
20260504034759 47 228 0.0 0.0 0.00 0.00 0.00 70
20260504034600 47 227 0.0 0.0 0.00 0.00 0.00 70
20260504034201 47 228 0.0 1.0 0.00 0.00 0.00 70
20260504034005 47 228 0.0 1.0 0.00 0.00 0.00 69
20260504033759 47 228 0.0 1.0 0.00 0.00 0.00 69
20260504033601 47 228 0.0 1.0 0.00 0.00 0.00 68
20260504033159 47 228 0.0 1.0 0.00 0.00 0.00 68
20260504033005 47 228 0.0 1.0 0.00 0.00 0.00 67
20260504032759 48 228 0.0 1.0 0.00 0.00 0.00 68
20260504032559 48 228 0.0 1.0 0.00 0.00 0.00 68
20260504032202 48 228 0.0 0.0 0.00 0.00 0.00 68
20260504032004 48 228 0.0 0.0 0.00 0.00 0.00 69
20260504031600 48 228 0.0 0.0 0.00 0.00 0.00 69
20260504031359 48 228 0.0 2.0 0.00 0.00 0.00 69
20260504031200 48 228 0.0 2.0 0.00 0.00 0.00 69
20260504031005 48 227 0.0 2.0 0.00 0.00 0.00 69
20260504030800 48 228 0.0 2.0 0.00 0.00 0.00 69
20260504030601 48 228 0.0 2.0 0.00 0.00 0.00 69
20260504030359 48 228 0.0 2.0 0.00 0.00 0.00 69
20260504030200 48 228 0.0 2.0 0.00 0.00 0.00 69
20260504030006 49 228 0.0 2.0 0.00 0.00 0.00 69
20260504025800 49 228 0.0 2.0 0.00 0.00 0.00 69
20260504025600 49 228 0.0 0.0 0.00 0.00 0.00 69
20260504025400 49 227 0.0 1.0 0.00 0.00 0.00 69
20260504025201 49 228 0.0 1.0 0.00 0.00 0.00 69
20260504024759 49 228 0.0 1.0 0.00 0.00 0.00 69
20260504024600 49 228 0.0 1.0 0.00 0.00 0.00 69
20260504024359 49 228 0.0 0.0 0.00 0.00 0.00 69
20260504024200 49 228 0.0 0.0 0.00 0.00 0.00 70
20260504024005 49 228 0.0 0.0 0.00 0.00 0.00 70
20260504023801 49 228 0.0 0.0 0.00 0.00 0.00 69
20260504023559 49 228 0.0 0.0 0.00 0.00 0.00 69
20260504023401 49 228 0.0 0.0 0.00 0.00 0.00 69
20260504023005 50 228 0.0 2.0 0.00 0.00 0.00 68
20260504022759 50 228 0.0 2.0 0.00 0.00 0.00 68
20260504022559 50 228 0.0 2.0 0.00 0.00 0.00 67
20260504022359 50 228 0.0 2.0 0.00 0.00 0.00 67
20260504022005 50 228 0.0 0.0 0.00 0.00 0.00 66
20260504021600 50 228 0.0 0.0 0.00 0.00 0.00 66
20260504021401 50 228 0.0 0.0 0.00 0.00 0.00 66
20260504021202 50 228 0.0 0.0 0.00 0.00 0.00 66
20260504021006 50 227 0.0 0.0 0.00 0.00 0.00 65
20260504020801 50 228 0.0 0.0 0.00 0.00 0.00 64
20260504020600 50 228 0.0 0.0 0.00 0.00 0.00 64
20260504020359 51 228 0.0 0.0 0.00 0.00 0.00 64
20260504020201 51 228 0.0 0.0 0.00 0.00 0.00 63
20260504020003 51 228 0.0 0.0 0.00 0.00 0.00 62
20260504015600 51 228 0.0 0.0 0.00 0.00 0.00 62
20260504015201 51 228 0.0 0.0 0.00 0.00 0.00 62
20260504015004 51 228 0.0 0.0 0.00 0.00 0.00 62
20260504014759 51 227 0.0 0.0 0.00 0.00 0.00 62
20260504014600 51 227 0.0 0.0 0.00 0.00 0.00 62
20260504014400 51 227 0.0 0.0 0.00 0.00 0.00 60
20260504013800 52 228 0.0 0.0 0.00 0.00 0.00 58
20260504013359 52 228 0.0 0.0 0.00 0.00 0.00 58
20260504013200 52 228 0.0 0.0 0.00 0.00 0.00 57
20260504013004 52 228 0.0 0.0 0.00 0.00 0.00 57
20260504012600 53 227 0.0 0.0 0.00 0.00 0.00 55
20260504012201 53 228 0.0 0.0 0.00 0.00 0.00 55
20260504012005 53 228 0.0 0.0 0.00 0.00 0.00 55
20260504011800 53 228 0.0 0.0 0.00 0.00 0.00 54